TimeGMT,TemperatureF,Dew PointF,Humidity,Sea Level PressureIn,VisibilityMPH,Wind Direction,Wind SpeedMPH,Gust SpeedMPH,PrecipitationIn,Events,Conditions,WindDirDegrees,DateUTC
12:50 AM,39.2,35.6,87,30.01,-9999.0,West,5.8,-,N/A,,Clear,270,2013-02-15 00:50:00
1:50 AM,39.2,35.6,87,30.01,-9999.0,West,6.9,-,N/A,,Clear,270,2013-02-15 01:50:00
2:50 AM,38,35,85,30.05,11,West,8.1,,,,,260,2013-02-15 02:50:00
2:50 AM,39.2,35.6,87,30.01,-9999.0,West,8.1,-,N/A,,Clear,260,2013-02-15 02:50:00
3:50 AM,39.2,33.8,81,30.04,-9999.0,West,8.1,-,N/A,,Clear,270,2013-02-15 03:50:00
4:50 AM,37.4,33.8,87,30.04,-9999.0,West,6.9,-,N/A,,Clear,260,2013-02-15 04:50:00
5:50 AM,36,33,87,30.08,11,West,4.6,,,,Scattered Clouds,280,2013-02-15 05:50:00
5:50 AM,35.6,33.8,93,30.04,-9999.0,West,4.6,-,N/A,,Clear,280,2013-02-15 05:50:00
6:50 AM,33.8,32.0,93,30.06,6.2,WSW,5.8,-,N/A,,Partly Cloudy,240,2013-02-15 06:50:00
7:50 AM,35.6,32.0,87,30.09,6.2,WSW,5.8,-,N/A,,Mostly Cloudy,250,2013-02-15 07:50:00
8:50 AM,38,35,82,30.13,11,WSW,6.9,,,,Partly Cloudy,250,2013-02-15 08:50:00
8:50 AM,37.4,33.8,87,30.09,-9999.0,WSW,6.9,-,N/A,,Clear,250,2013-02-15 08:50:00
9:50 AM,42.8,35.6,76,30.12,-9999.0,WSW,6.9,-,N/A,,Clear,250,2013-02-15 09:50:00
10:50 AM,44.6,37.4,76,30.12,-9999.0,West,8.1,-,N/A,,Clear,270,2013-02-15 10:50:00
11:50 AM,46,36,58,30.15,16,West,8.1,,,,Scattered Clouds,280,2013-02-15 11:50:00
11:50 AM,46.4,35.6,66,30.12,6.2,West,8.1,-,N/A,,Mostly Cloudy,280,2013-02-15 11:50:00
12:50 PM,48.2,37.4,66,30.12,6.2,West,8.1,-,N/A,,Scattered Clouds,280,2013-02-15 12:50:00
1:50 PM,50.0,33.8,54,30.12,6.2,West,8.1,-,N/A,,Mostly Cloudy,260,2013-02-15 13:50:00
2:50 PM,48,31,40,30.15,19,WNW,8.1,,,,Mostly Cloudy,290,2013-02-15 14:50:00
2:50 PM,48.2,32.0,54,30.12,6.2,WNW,8.1,-,N/A,,Mostly Cloudy,290,2013-02-15 14:50:00
3:50 PM,48.2,32.0,54,30.12,6.2,NW,8.1,-,N/A,,Mostly Cloudy,320,2013-02-15 15:50:00
4:50 PM,46.4,32.0,57,30.15,6.2,West,5.8,-,N/A,,Scattered Clouds,280,2013-02-15 16:50:00
5:50 PM,42,33,60,30.18,19,SW,4.6,,,,Partly Cloudy,230,2013-02-15 17:50:00
5:50 PM,42.8,32.0,66,30.15,6.2,SW,4.6,-,N/A,,Scattered Clouds,230,2013-02-15 17:50:00
6:50 PM,39.2,32.0,75,30.18,6.2,SW,4.6,-,N/A,,Mostly Cloudy,230,2013-02-15 18:50:00
7:50 PM,41.0,35.6,81,30.18,6.2,SW,5.8,-,N/A,,Mostly Cloudy,230,2013-02-15 19:50:00
8:50 PM,37,34,83,30.22,11,SSW,6.9,,,,Partly Cloudy,210,2013-02-15 20:50:00
8:55 PM,37.4,35.6,93,30.18,6.2,SSW,6.9,-,N/A,,Scattered Clouds,210,2013-02-15 20:55:00
9:50 PM,39.2,35.6,87,30.18,6.2,SSW,4.6,-,N/A,,Mostly Cloudy,210,2013-02-15 21:50:00
10:50 PM,35.6,33.8,93,30.18,6.2,SSW,3.5,-,N/A,,Mostly Cloudy,200,2013-02-15 22:50:00
11:50 PM,38,35,85,30.23,9,SW,3.5,,,,Mostly Cloudy,220,2013-02-15 23:50:00
11:50 PM,37.4,35.6,93,30.21,6.2,SW,3.5,-,N/A,,Mostly Cloudy,220,2013-02-15 23:50:00